FW3816 Weather Reports


time (UTC)temp
C
wind
direction
speed
KPH
gust
KPH
rain 1hr
cm
rain 24hr
cm
rain mn
cm
humidity
%
barometer
mb
20260504081545 6 299 12.9 14.5 0.00 0.00 0.00 56 1005.2
20260504060126 7 313 9.7 14.5 0.00 0.00 0.00 57 1005.6
20260504050113 8 327 9.7 16.1 0.00 0.00 0.00 54 1005.7
20260504044523 8 286 8.0 12.9 0.00 0.00 0.00 53 1005.7
20260504043025 10 289 12.9 16.1 0.00 0.00 0.00 50 1005.8
20260504041521 10 263 11.3 14.5 0.00 0.00 0.00 49 1005.6
20260504040020 11 304 6.4 8.0 0.00 0.00 0.00 44 1005.5
20260504034519 12 96 0.0 1.6 0.00 0.00 0.00 43 1005.4
20260504033019 13 88 3.2 6.4 0.00 0.00 0.00 43 1005.1
20260504031516 13 46 6.4 9.7 0.00 0.00 0.00 39 1004.9
20260504030016 15 22 8.0 14.5 0.00 0.00 0.00 37 1004.8
20260504024515 15 42 9.7 17.7 0.00 0.00 0.00 36 1004.6
20260504023014 15 46 12.9 19.3 0.00 0.00 0.00 35 1004.4
20260504021511 16 53 11.3 19.3 0.00 0.00 0.00 35 1004.4
20260504020010 17 45 12.9 24.1 0.00 0.00 0.00 33 1004.4
20260504014510 17 58 17.7 25.7 0.00 0.00 0.00 32 1004.4
20260504013013 18 64 16.1 25.7 0.00 0.00 0.00 29 1004.5
20260504011505 18 22 19.3 27.4 0.00 0.00 0.00 29 1004.5
20260504010004 18 34 16.1 24.1 0.00 0.00 0.00 28 1004.6
20260504004506 19 28 20.9 27.4 0.00 0.00 0.00 28 1004.6
20260504003003 19 30 17.7 29.0 0.00 0.00 0.00 28 1004.7
20260504001603 20 59 8.0 16.1 0.00 0.00 0.00 24 1004.7
20260504000059 21 240 6.4 11.3 0.00 0.00 0.00 20 1004.8
20260503234556 21 10 1.6 8.0 0.00 0.00 0.00 20 1004.9
20260503233102 20 220 0.0 9.7 0.00 0.00 0.00 19 1004.9
20260503231552 21 9 8.0 20.9 0.00 0.00 0.00 20 1004.9
20260503230049 21 50 12.9 20.9 0.00 0.00 0.00 23 1005.1
20260503224548 21 246 3.2 12.9 0.00 0.00 0.00 21 1005.1
20260503223048 21 298 8.0 33.8 0.00 0.00 0.00 19 1005.3
20260503221551 21 289 11.3 22.5 0.00 0.00 0.00 19 1005.4
20260503220045 22 267 12.9 17.7 0.00 0.00 0.00 19 1005.4
20260503214537 22 291 4.8 11.3 0.00 0.00 0.00 21 1006.0
20260503213036 21 165 4.8 17.7 0.00 0.00 0.00 22 1006.1
20260503211529 21 341 1.6 17.7 0.00 0.00 0.00 22 1006.5
20260503210040 21 360 1.6 12.9 0.00 0.00 0.00 22 1006.9
20260503204525 20 134 4.8 17.7 0.00 0.00 0.00 22 1007.1
20260503203020 20 110 11.3 19.3 0.00 0.00 0.00 23 1007.2
20260503201524 20 138 6.4 16.1 0.00 0.00 0.00 25 1007.5
20260503200047 18 101 4.8 16.1 0.00 0.00 0.00 26 1007.8
20260503194545 18 104 3.2 20.9 0.00 0.00 0.00 25 1007.7
20260503193036 19 43 11.3 27.4 0.00 0.00 0.00 25 1007.9
20260503191535 20 38 16.1 24.1 0.00 0.00 0.00 27 1008.0
20260503190042 19 74 11.3 19.3 0.00 0.00 0.00 27 1008.5
20260503184529 18 127 8.0 22.5 0.00 0.00 0.00 29 1009.0
20260503183024 17 95 6.4 19.3 0.00 0.00 0.00 27 1009.2
20260503181518 17 80 3.2 16.1 0.00 0.00 0.00 27 1009.5
20260503180014 17 67 0.0 6.4 0.00 0.00 0.00 29 1009.9
20260503174511 16 94 8.0 16.1 0.00 0.00 0.00 31 1010.2
20260503173005 16 101 3.2 6.4 0.00 0.00 0.00 32 1010.4
20260503171501 15 73 3.2 19.3 0.00 0.00 0.00 33 1010.6